User: anonymous   Login
Location: Key Biscayne
(25.6930°N, 80.1630°W)
Time: 05:05:09
(UTC-05:00)
Language:

CZ-2D R/B - Orbit

View from above orbital plane
View from above orbital plane
View from above satellite
View from above satellite

Ground track
Ground track

The orbit data is extracted from the following two-line orbital elements,

1 28738U 05024B   17017.54696070  .00000202  00000-0  15917-4 0  9993
2 28738  97.5168  57.2329 0012889 156.5450 203.6370 15.10939657633063
Epoch (UTC): 17 January 2017 13:07:37
Eccentricity: 0.0012889
inclination: 97.5168°
perigee height: 524 km
apogee height: 542 km
right ascension of ascending node: 57.2329°
argument of perigee: 156.5450°
revolutions per day: 15.10939657
mean anomaly at epoch: 203.6370°
orbit number at epoch: 63306

The dashed part of the orbit path shows where the satellite is in the earth's shadow,  

DLR